Showing default

ICEYE-X5, 44389

Orbit data source: Space-Track

ICEYE-X5, 44389 is a payload satellite owned by ICEYE (FI) in SSO that was launched on Fri, 05 Jul 2019 UTC via a SOYUZ-2-1B launch vehicle from the Vostochny Cosmodrome (VOSTO). Payload-class satellites include a variety of spacecraft equipped with specific instruments for various scientific and technological missions. These include communications satellites like Starlink; space stations such as the ISS; scientific satellites like the Hubble; Earth observation satellites from companies like Planet Labs, Umbra, and HawkEye 360; GPS; miniature CubeSats for education and research; and military/defense satellites.

Loading next visibility...
Identifier
44389, 2019-038C
Orbit
SSO
Country
Flag of FIFI / FIN
Related business
Manufacturer
ICEYE
Mission
Non-operational Commercial Radar Imaging
Bus & Motor
ICEYE, Unknown motor
Mass
80 kg wet, 80 kg dry
Launch date (UTC)
2019-07-05 (6 years ago)
Launch vehicle
SOYUZ-2-1B
Launch site
Vostochny Cosmodrome (VOSTO)
Object type
Payload
Rocket body
Debris
Shape & HBR
Box + 1 Pan, 1.6 m
Radar Cross Section
1.837 m², Large (>1 m²)

Expand to show TLE details & history
Last TLE update: 15 hours ago

TLE from 15 hours ago
0 ICEYE-X5
1 44389U 19038C   25287.96185267  .00026868  00000-0  73477-3 0  9998
2 44389  97.9071 316.2668 0010528  61.8654 298.3652 15.37294130345070
Epoch: 2025-10-14T23:05Z
TLE epoch observation values (Epoch: 2025-10-14T23:05:04.070Z)
Latitude
Longitude
-53.74292°
Altitude
453.801 km
Speed
7.642 km/s
True Right ascension
21h 05m 04s
True Declination
0° 00' 00"
Sunlit
Object was in full shadow at epoch
Visualization orbit readout
Latitude
Unknown
Longitude
Unknown
Altitude
Unknown
Speed
Unknown
Apparent Right ascension
Unknown
Apparent Declination
Unknown
Sunlit
N/A
Visualization observer readout
Local Sidereal Time
08:41:52
Azimuth
Unknown
Elevation
Unknown
Doppler factor
Unknown
Orbital elements
Apogee altitude
458.27 km
Perigee altitude
443.89 km
Semi-major axis
6,829.217 km
Eccentricity
0.00105
Inclination
97.9071°
RAAN
316.2668°
Arg. of periapsis
61.8654°
True anomaly
298.25898°
Mean anomaly
298.3652°
Eccentric anomaly
298.31209°
Mean motion
3.8458 °/min
Orbital period
93.61 mins
BSTAR
0.00073477
Loading maneuver chart data...
Computing Atmospheric mass density...

Documentation

Showing up to 5 results
|